This demonstration page uses our WeatherBlox Daily Observations layout. Learn more.

Left ArrowRight Arrow

40.92945, -100.16068

Hourly Observations for September 12, 2017

Temp ( °F °C ) Dew Point ( °F °C ) Humidity (%) Winds ( mph kmh ) Pressure ( in mb ) Visibility ( mi km ) Precip ( " mm )
12:15 am 00:15 Clear 66 18.9 55 12.7 67 67 SSE 7 11 30.03 1017 10 16 0.00 0.00
12:35 am 00:35 Clear 68 19.9 54 12.2 61 61 SE 8 13 30.00 1016 10 16 0.00 0.00
12:55 am 00:55 Clear 68 20 54 12 60 60 SE 8 13 30.00 1016 10 16 0.00 0.00
1:15 am 01:15 Clear 68 20 53 11.8 59 59 SE 7 11 30.00 1016 10 16 0.00 0.00
1:35 am 01:35 Clear 68 20 53 11.7 59 59 SE 8 13 30.00 1016 10 16 0.00 0.00
2:00 am 02:00 Clear 67 19.5 54 12 62 62 SSE 6 9 30.00 1016 10 16 0.00 0.00
2:15 am 02:15 Clear 67 19.4 54 12 62 62 SE 6 9 30.00 1016 10 16 0.00 0.00
2:35 am 02:35 Clear 65 18.4 54 12.1 67 67 SE 6 9 30.00 1016 10 16 0.00 0.00
2:55 am 02:55 Clear 64 17.5 55 12.5 73 73 SE 5 7 30.00 1016 10 16 0.00 0.00
3:15 am 03:15 Clear 61 16.3 55 13 81 81 Calm 30.03 1017 10 16 0.00 0.00
3:35 am 03:35 Clear 60 15.5 55 12.5 82 82 Calm 30.00 1016 10 16 0.00 0.00
3:55 am 03:55 Clear 59 15 55 12.8 87 87 Calm 30.00 1016 10 16 0.00 0.00
4:15 am 04:15 Clear 58 14.6 54 12.4 87 87 E 3 6 30.00 1016 10 16 0.00 0.00
4:35 am 04:35 Clear 58 14.2 55 12.5 90 90 E 3 6 30.00 1016 10 16 0.00 0.00
4:55 am 04:55 Clear 58 14.5 55 12.5 88 88 E 3 6 30.00 1016 10 16 0.00 0.00
5:15 am 05:15 Clear 57 13.8 54 12.1 90 90 E 5 7 30.00 1016 10 16 0.00 0.00
5:35 am 05:35 Clear 57 13.9 54 12.2 90 90 E 5 7 30.00 1016 10 16 0.00 0.00
5:55 am 05:55 Clear 57 14 54 12.1 88 88 ESE 3 6 30.00 1016 10 16 0.00 0.00
6:15 am 06:15 Clear 57 14 53 11.7 86 86 Calm 30.00 1016 10 16 0.00 0.00
6:35 am 06:35 Clear 58 14.4 54 12 86 86 Calm 30.00 1016 10 16 0.00 0.00
6:55 am 06:55 Clear 56 13.6 53 11.4 87 87 ESE 3 6 30.00 1016 10 16 0.00 0.00
7:15 am 07:15 Clear 57 13.8 53 11.9 88 88 ESE 5 7 30.00 1016 10 16 0.00 0.00
7:35 am 07:35 Sunny 58 14.5 54 12 85 85 SE 7 11 30.00 1016 10 16 0.00 0.00
7:55 am 07:55 Sunny 59 15.1 55 12.5 85 85 SE 3 6 30.00 1016 10 16 0.00 0.00
8:15 am 08:15 Sunny 61 16 55 12.9 82 82 ESE 6 9 30.00 1016 10 16 0.00 0.00
8:35 am 08:35 Sunny 63 17 56 13.1 78 78 ESE 3 6 29.97 1015 10 16 0.00 0.00
8:55 am 08:55 Sunny 64 17.7 55 12.9 74 74 ESE 6 9 29.97 1015 10 16 0.00 0.00
9:15 am 09:15 Sunny 65 18.6 56 13.4 72 72 SE 6 9 29.97 1015 10 16 0.00 0.00
9:35 am 09:35 Sunny 68 19.8 57 13.7 68 68 SSE 5 7 29.97 1015 10 16 0.00 0.00
9:55 am 09:55 Sunny 71 21.7 58 14.3 63 63 SSE 6 9 29.94 1014 10 16 0.00 0.00
10:15 am 10:15 Sunny 74 23.6 57 13.7 54 54 S 6 9 29.94 1014 10 16 0.00 0.00
10:35 am 10:35 Sunny 77 25.1 56 13.6 49 49 SSW 8 13 29.91 1013 10 16 0.00 0.00
10:55 am 10:55 Sunny 78 25.7 55 12.9 45 45 SSW 12 19 29.91 1013 10 16 0.00 0.00
11:15 am 11:15 Sunny 79 26.1 55 12.7 43 43 SSW 9 15 29.91 1013 10 16 0.00 0.00
11:35 am 11:35 Sunny 81 27 57 13.7 44 44 S 9 15 29.91 1013 10 16 0.00 0.00
11:55 am 11:55 Sunny 82 27.5 55 12.9 41 41 S 12 19 29.88 1012 10 16 0.00 0.00
12:15 pm 12:15 Sunny 82 27.9 56 13.1 40 40 SSW 12 19 29.88 1012 10 16 0.00 0.00
12:35 pm 12:35 Sunny 83 28.2 55 12.9 39 39 S 12 19 29.88 1012 10 16 0.00 0.00
12:55 pm 12:55 Sunny 84 29 56 13.5 39 39 S 9 15 29.88 1012 10 16 0.00 0.00
1:15 pm 13:15 Sunny 85 29.4 56 13.4 37 37 SSW 10 17 29.85 1011 10 16 0.00 0.00
1:35 pm 13:35 Sunny 85 29.7 56 13.2 36 36 SSW 12 19 29.85 1011 10 16 0.00 0.00
1:55 pm 13:55 Sunny 86 30.1 56 13.3 36 36 SSW 8 13 29.85 1011 10 16 0.00 0.00
2:15 pm 14:15 Sunny 87 30.5 56 13.4 35 35 S 10 17 29.80 1009 10 16 0.00 0.00
2:35 pm 14:35 Sunny 88 31 55 13 33 33 SSE 10 17 29.80 1009 10 16 0.00 0.00
2:55 pm 14:55 Sunny 88 31 56 13.2 34 34 SSE 14 22 29.80 1009 10 16 0.00 0.00
3:15 pm 15:15 Sunny 88 31 55 12.8 33 33 SSE 12 19 29.80 1009 10 16 0.00 0.00
3:35 pm 15:35 Sunny 88 31 56 13.4 34 34 SSE 12 19 29.77 1008 10 16 0.00 0.00
3:55 pm 15:55 Sunny 88 30.9 56 13.4 34 34 SSE 10 17 29.77 1008 10 16 0.00 0.00
4:15 pm 16:15 Sunny 88 30.9 55 13 33 33 SSE 9 15 29.77 1008 10 16 0.00 0.00
4:35 pm 16:35 Sunny 88 30.9 56 13.1 34 34 SSE 9 15 29.74 1007 10 16 0.00 0.00
4:55 pm 16:55 Sunny 88 31 56 13.3 34 34 SSE 10 17 29.74 1007 10 16 0.00 0.00
5:15 pm 17:15 Sunny 87 30.6 55 13 34 34 SE 10 17 29.74 1007 10 16 0.00 0.00
5:35 pm 17:35 Sunny 87 30.3 56 13.1 35 35 SSE 10 17 29.74 1007 10 16 0.00 0.00
5:55 pm 17:55 Sunny 86 30 56 13.1 35 35 SSE 12 19 29.74 1007 10 16 0.00 0.00
6:15 pm 18:15 Sunny 85 29.5 55 13 36 36 SE 10 17 29.77 1008 10 16 0.00 0.00
6:35 pm 18:35 Sunny 84 29 56 13.6 39 39 SE 10 17 29.77 1008 10 16 0.00 0.00
6:55 pm 18:55 Sunny 83 28.4 57 14 41 41 SSE 10 17 29.77 1008 10 16 0.00 0.00
7:15 pm 19:15 Sunny 82 27.5 57 14 44 44 SE 8 13 29.77 1008 10 16 0.00 0.00
7:35 pm 19:35 Sunny 80 26.6 57 13.7 45 45 SE 8 13 29.77 1008 10 16 0.00 0.00
7:55 pm 19:55 Clear 78 25.6 57 13.7 48 48 SE 8 13 29.77 1008 10 16 0.00 0.00
8:15 pm 20:15 Clear 77 24.9 57 13.9 51 51 SE 8 13 29.77 1008 10 16 0.00 0.00
8:35 pm 20:35 Clear 74 23.6 57 14.1 55 55 SE 8 13 29.77 1008 10 16 0.00 0.00
8:55 pm 20:55 Clear 73 22.8 58 14.2 58 58 SSE 8 13 29.77 1008 10 16 0.00 0.00
9:15 pm 21:15 Clear 71 21.7 58 14.5 64 64 SSE 8 13 29.83 1010 10 16 0.00 0.00
9:35 pm 21:35 Clear 72 22 58 14.2 61 61 SSE 8 13 29.80 1009 10 16 0.00 0.00
9:55 pm 21:55 Clear 72 22 57 14 61 61 SE 7 11 29.83 1010 10 16 0.00 0.00
10:15 pm 22:15 Clear 71 21.5 57 13.7 61 61 SSE 8 13 29.83 1010 10 16 0.00 0.00
10:35 pm 22:35 Clear 70 21.2 56 13.5 62 62 SSE 8 13 29.80 1009 10 16 0.00 0.00
10:55 pm 22:55 Clear 70 21.1 56 13.6 62 62 SSE 9 15 29.80 1009 10 16 0.00 0.00
11:15 pm 23:15 Clear 70 21.2 56 13.5 62 62 SSE 9 15 29.80 1009 10 16 0.00 0.00
11:35 pm 23:35 Clear 68 19.8 56 13.6 68 68 SSE 5 7 29.83 1010 10 16 0.00 0.00
11:55 pm 23:55 Clear 67 19.2 56 13.5 70 70 SSE 8 13 29.83 1010 10 16 0.00 0.00

Powered by AerisWeather